Regional Weather Roundup
Issued by NWS

Home | Current Version | Previous Version | Graphics & Text | Print | Product List | Glossary On
Versions: 1 2 3 4 5 6 7 8 9 10 11 12 13 14 15 16 17 18 19 20 21 22 23 24 25 26 27 28 29 30 31 32 33 34 35 36 37 38 39 40 41 42 43 44 45 46 47 48 49 50
000
ASUS44 KMEG 122100
RWRTN
TENNESSEE HOURLY STATE WEATHER ROUNDUP
NATIONAL WEATHER SERVICE MEMPHIS TN
400 PM CDT SAT JUL 12 2014

TNZ002-004-019-021-049-052-054-088>092-122200-
WEST TENNESSEE

CITY           SKY/WX    TMP DP  RH WIND       PRES   REMARKS
MEMPHIS INTL   PTSUNNY   90  69  50 VRB5      30.12F HX  94
NWS MEMPHIS      N/A     92 N/A N/A MISG        N/A
JACKSON        MOSUNNY   90  69  50 SE5       30.13F HX  94
DYERSBURG      PTSUNNY   91  66  43 S6        30.11F HX  94
UNION CITY     SUNNY     88  72  58 S5        30.10F HX  94
PARIS          SUNNY     88  70  55 S6        30.14F HX  92
LEXINGTON      SUNNY     88  68  51 CALM      30.13F HX  91
SAVANNAH       SUNNY     91  70  49 CALM      30.14F HX  97
$$

TNZ008-025-027-028-033-062-065-066-122200-
NORTH MIDDLE TENNESSEE

CITY           SKY/WX    TMP DP  RH WIND       PRES   REMARKS
NASHVILLE      PTSUNNY   91  64  40 W5        30.13F HX  92
CLARKSVILLE    MOSUNNY   93  65  39 SW10      30.12F HX  95
COOKEVILLE     SUNNY     93  64  38 CALM      30.16F HX  95
CROSSVILLE     MOSUNNY   85  58  39 W5        30.22F
$$

TNZ061-075-076-078-094-096-097-122200-
SOUTH MIDDLE TENNESSEE

CITY           SKY/WX    TMP DP  RH WIND       PRES   REMARKS
FAYETTEVILLE   SUNNY     88  64  45 MISG      30.15F
TULLAHOMA      SUNNY     91  63  38 SW5       30.16F HX  92
WINCHESTER     MOSUNNY   91  66  43 CALM      30.15F HX  94
MCMINNVILLE    SUNNY     90  66  45 N8        30.16F HX  92
COLUMBIA       SUNNY     91  68  46 VRB5      30.13F HX  95
SHELBYVILLE    SUNNY     93  66  40 CALM      30.15F HX  96
$$

TNZ017-018-042-046-047-122200-
NORTHEAST TENNESSEE

CITY           SKY/WX    TMP DP  RH WIND       PRES   REMARKS
TRI CITIES     MOSUNNY   89  61  38 NW5       30.18F
ELIZABETHTON   PTCLDY    79  66  65 CALM      30.20F
$$

TNZ012-013-036-069-073-074-122200-
CENTRAL EAST TENNESSEE

CITY           SKY/WX    TMP DP  RH WIND       PRES   REMARKS
KNOXVILLE      MOSUNNY   90  65  43 W7        30.15F HX  92
OAK RIDGE      MOSUNNY   90  67  46 CALM      30.16F HX  93
GATLINBURG     CLEAR     88  66  48 CALM      30.16F HX  90
$$

TNZ083-085-099-122200-
SOUTHEAST TENNESSEE

CITY           SKY/WX    TMP DP  RH WIND       PRES   REMARKS
CHATTANOOGA    PTSUNNY   91  66  43 SE5       30.13F HX  93
$$

SKY/WX REPORTED AS FAIR MEANS FEW OR NO CLOUDS BELOW
12 THOUSAND FEET.




USA.gov is the U.S. government's official web portal to all federal, state and local government web resources and services.